Regional Weather Roundup
Issued by NWS

Home | Current Version | Previous Version | Graphics & Text | Print | Product List | Glossary On
Versions: 1 2 3 4 5 6 7 8 9 10 11 12 13 14 15 16 17 18 19 20 21 22 23 24 25 26 27 28 29 30 31 32 33 34 35 36 37 38 39 40 41 42 43 44 45 46 47 48 49 50
000
ASUS43 KOAX 201702
RWRNE

WEATHER ROUNDUP FOR NEBRASKA
NATIONAL WEATHER SERVICE OMAHA NE
1100 AM CST MON NOV 20 2017

NOTES: SATELLITE DATA IS BEING USED TO AUGMENT CLOUD COVER ABOVE
       12000 FEET.
       "FAIR" INDICATES FEW OR NO CLOUDS BELOW 12,000 FEET WITH NO
       SIGNIFICANT WEATHER AND/OR OBSTRUCTIONS TO VISIBILITY.


NEZ001>004-019>022-054>056-201800-
NEBRASKA PANHANDLE

CITY           SKY/WX    TMP DP  RH WIND       PRES   REMARKS
SCOTTSBLUFF    CLOUDY    63   4   9 W31G46    29.70S
ALLIANCE       CLOUDY    58   8  13 W24G39    29.67F
CHADRON        CLOUDY    51  18  27 W12       29.67S
GORDON         FAIR      47  18  30 W12       29.65S
KIMBALL        CLOUDY    59   6  12 W29G40    29.77F
SIDNEY         CLOUDY    63   2   8 W26G35    29.76F
$$

NEZ057>060-069>072-079>082-201800-
SOUTHWEST NEBRASKA

CITY           SKY/WX    TMP DP  RH WIND       PRES   REMARKS
NORTH PLATTE   CLOUDY    46  27  47 NW8       29.73S
IMPERIAL       SUNNY     62  12  14 W10       29.76S
LEXINGTON      CLOUDY    48  27  43 CALM      29.71S
MCCOOK         SUNNY     49  23  36 W10       29.76F
OGALLALA       SUNNY     52  19  27 W18       29.73S
$$

NEZ005>010-023>029-035>040-094-201800-
NORTH CENTRAL NEBRASKA

CITY           SKY/WX    TMP DP  RH WIND       PRES   REMARKS
VALENTINE      CLOUDY    50  18  28 W15       29.58F
AINSWORTH      CLOUDY    50  21  31 W13       29.60S
BROKEN BOW     CLOUDY    53  20  27 W17       29.67F
O`NEILL        CLOUDY    50  24  35 W13       29.60S
ORD            CLOUDY    51  24  34 W8        29.64S
THEDFORD       CLOUDY    58  17  19 W18G24    29.64F
$$

NEZ041-046>049-061>064-073>077-083>087-201800-
SOUTH CENTRAL NEBRASKA

CITY           SKY/WX    TMP DP  RH WIND       PRES   REMARKS
GRAND ISLAND   CLOUDY    53  26  35 W15       29.69F
AURORA         CLOUDY    49  26  41 SW16      29.68F
HASTINGS       CLOUDY    49  27  42 SW10      29.71F
HEBRON         SUNNY     50  23  33 SW13G20   29.75F
HOLDREGE       CLOUDY    49  26  42 SW8       29.72S
YORK           CLOUDY    48  27  43 SW12      29.69F
$$

NEZ011>018-030>034-042>045-201800-
NORTHEAST NEBRASKA

CITY           SKY/WX    TMP DP  RH WIND       PRES   REMARKS
NORFOLK        CLOUDY    48  25  40 SW13      29.61F
ALBION         CLOUDY    50  25  37 SW9       29.63F
BLAIR            N/A    N/A N/A N/A MISG        N/A
COLUMBUS       CLOUDY    49  25  39 SW13      29.66F
FREMONT        CLOUDY    49  26  40 SW13      29.67F
TEKAMAH        CLOUDY    49  27  42 S18       29.66F
WAYNE          CLOUDY    47  23  38 SW12      29.61F
$$

NEZ050>053-065>068-078-088>093-201800-
SOUTHEAST NEBRASKA

CITY           SKY/WX    TMP DP  RH WIND       PRES   REMARKS
LINCOLN        SUNNY     53  24  32 SW16      29.72F
OMAHA EPPLEY   PTSUNNY   52  25  35 S14       29.69F
BEATRICE       SUNNY     51  26  37 SW21      29.74F
FALLS CITY     SUNNY     56  26  31 SW21G30   29.79F
NEBRASKA CITY  SUNNY     54  28  36 SW17G28   29.74F
PLATTSMOUTH    SUNNY     53  27  36 S22       29.71F
$$

NEZ044-045-051>053-067-201800-
OMAHA AREA

CITY           SKY/WX    TMP DP  RH WIND       PRES   REMARKS
OMAHA EPPLEY   PTSUNNY   52  25  35 S14       29.69F
BLAIR            N/A    N/A N/A N/A MISG        N/A
FREMONT        CLOUDY    49  26  40 SW13      29.67F
MILLARD        SUNNY     54  26  35 SW12G17   29.70F
OFFUTT AFB     SUNNY     52  25  34 S15       29.70F
PLATTSMOUTH    SUNNY     53  27  36 S22       29.71F
WAHOO          FAIR      52  25  35 SW16      29.69F
$$




USA.gov is the U.S. government's official web portal to all federal, state and local government web resources and services.